STARLINK-35921

Last updated on Wed Dec 31 2025 00:02:07 GMT+0000 (Coordinated Universal Time)

1 66640U 25271Z 25364.53343886 .00063496 00000+0 15852-2 0 9999 2 66640 53.1614 102.9270 0002217 38.3816 321.7347 15.39599147 6956
UTC large
Height (km)
Speed (km/s)
/
Latitude / Longitude
Inclination (degrees)
Orbital Period (minutes)
Azimuth
Elevation
Range (km)
Doppler Factor

Next 0 passes for location: London (51.5072 / 0.1276)

Sorry there are no passes over London.